,,PA_Meas_PMT16A,,PR_Meas_QMR101_102,,RH_Meas_QMH101,,SR_Meas_QMS101,,TA_Meas_QMH101,,GenWind,,GenWind,
time,status,PA,status,PR,status,RH,status,SR,status,TA,status,DirAvg,status,SpdAvg,
2011-10-19, 00:00:04,VALID,916.411,VALID,0,VALID,96.7411,VALID,0,VALID,20.0733,VALID,160,VALID,0.249219,
2011-10-19, 00:01:04,VALID,916.394,VALID,0,VALID,96.7716,VALID,0,VALID,20.0733,VALID,160,VALID,0.179297,
2011-10-19, 00:02:04,VALID,916.392,VALID,0,VALID,96.7793,VALID,0,VALID,20.0928,VALID,160,VALID,0.130078,
2011-10-19, 00:03:04,VALID,916.372,VALID,0,VALID,96.7564,VALID,0,VALID,20.0944,VALID,160,VALID,0.319141,
2011-10-19, 00:04:04,VALID,916.38,VALID,0,VALID,96.7716,VALID,0,VALID,20.0913,VALID,160,VALID,0.271094,
2011-10-19, 00:05:04,VALID,916.404,VALID,0,VALID,96.7488,VALID,0,VALID,20.0718,VALID,160,VALID,0.281641,
2011-10-19, 00:06:04,VALID,916.383,VALID,0,VALID,96.7869,VALID,0,VALID,20.0718,VALID,160,VALID,0.264453,
2011-10-19, 00:07:04,VALID,916.366,VALID,0,VALID,96.7564,VALID,0,VALID,20.0718,VALID,160,VALID,0,
2011-10-19, 00:08:04,VALID,916.35,VALID,0,VALID,96.764,VALID,0,VALID,20.0928,VALID,160,VALID,0.4625,
2011-10-19, 00:09:04,VALID,916.324,VALID,0,VALID,96.7411,VALID,0,VALID,20.0733,VALID,160,VALID,0.321094,
2011-10-19, 00:10:04,VALID,916.336,VALID,0,VALID,96.7488,VALID,0,VALID,20.0523,VALID,160,VALID,0.505859,
2011-10-19, 00:11:04,VALID,916.302,VALID,0,VALID,96.7183,VALID,0,VALID,20.0523,VALID,160,VALID,0.361328,
2011-10-19, 00:12:04,VALID,916.299,VALID,0,VALID,96.6954,VALID,0,VALID,20.0328,VALID,160,VALID,0.444922,
2011-10-19, 00:13:04,VALID,916.265,VALID,0,VALID,96.6878,VALID,0,VALID,20.0328,VALID,160,VALID,0.382422,
2011-10-19, 00:14:04,VALID,916.252,VALID,0,VALID,96.6802,VALID,0,VALID,20.0328,VALID,160,VALID,0.292578,
2011-10-19, 00:15:04,VALID,916.235,VALID,0,VALID,96.6878,VALID,0,VALID,20.0538,VALID,160,VALID,0.08125,
2011-10-19, 00:16:04,VALID,916.231,VALID,0,VALID,96.703,VALID,0,VALID,20.0328,VALID,160,VALID,0,
2011-10-19, 00:17:04,VALID,916.207,VALID,0,VALID,96.7259,VALID,0,VALID,20.0118,VALID,160,VALID,0,
2011-10-19, 00:18:04,VALID,916.201,VALID,0,VALID,96.7183,VALID,0,VALID,20.0328,VALID,160,VALID,0,
2011-10-19, 00:19:04,VALID,916.209,VALID,0,VALID,96.703,VALID,0,VALID,20.0328,VALID,160,VALID,0,
2011-10-19, 00:20:04,VALID,916.219,VALID,0,VALID,96.6878,VALID,0,VALID,20.0133,VALID,160,VALID,0,
2011-10-19, 00:21:04,VALID,916.2,VALID,0,VALID,96.703,VALID,0,VALID,20.0148,VALID,160,VALID,0,
2011-10-19, 00:22:05,VALID,916.199,VALID,0,VALID,96.7564,VALID,0,VALID,20.0133,VALID,160,VALID,0,
2011-10-19, 00:23:05,VALID,916.173,VALID,0,VALID,96.7793,VALID,0,VALID,20.0328,VALID,160,VALID,0.46875,
2011-10-19, 00:24:05,VALID,916.177,VALID,0,VALID,96.6725,VALID,0,VALID,19.9938,VALID,160,VALID,0.567187,
2011-10-19, 00:25:05,VALID,916.162,VALID,0,VALID,96.6725,VALID,0,VALID,19.9743,VALID,160,VALID,0.357812,
2011-10-19, 00:26:05,VALID,916.173,VALID,0,VALID,96.6725,VALID,0,VALID,19.9548,VALID,160,VALID,0.506641,
2011-10-19, 00:27:05,VALID,916.179,VALID,0,VALID,96.6878,VALID,0,VALID,19.9548,VALID,160,VALID,0.174219,
2011-10-19, 00:28:05,VALID,916.146,VALID,0,VALID,96.7107,VALID,0,VALID,19.9548,VALID,160,VALID,0.669922,
2011-10-19, 00:29:05,VALID,916.147,VALID,0,VALID,96.6954,VALID,0,VALID,19.9368,VALID,180,VALID,0.551172,
2011-10-19, 00:30:05,VALID,916.088,VALID,0,VALID,96.6878,VALID,0,VALID,19.9158,VALID,180,VALID,0.376563,
2011-10-19, 00:31:05,VALID,916.103,VALID,0,VALID,96.7564,VALID,0,VALID,19.9158,VALID,180,VALID,0.267969,
2011-10-19, 00:32:05,VALID,916.068,VALID,0,VALID,96.642,VALID,0,VALID,19.8378,VALID,180,VALID,0.968359,
2011-10-19, 00:33:05,VALID,916.081,VALID,0,VALID,96.6725,VALID,0,VALID,19.8183,VALID,180,VALID,0.559766,
2011-10-19, 00:34:05,VALID,916.025,VALID,0,VALID,96.7716,VALID,0,VALID,19.8378,VALID,173,VALID,0.464844,
2011-10-19, 00:35:05,VALID,916.009,VALID,0,VALID,96.8174,VALID,0,VALID,19.8378,VALID,149,VALID,0.198828,
2011-10-19, 00:36:05,VALID,915.951,VALID,0,VALID,96.8631,VALID,0,VALID,19.8378,VALID,149,VALID,0.00585938,
2011-10-19, 00:37:05,VALID,915.984,VALID,0,VALID,96.8784,VALID,0,VALID,19.8573,VALID,149,VALID,0.323047,
2011-10-19, 00:38:05,VALID,915.931,VALID,0,VALID,96.8403,VALID,0,VALID,19.8588,VALID,149,VALID,0.478516,
2011-10-19, 00:39:05,VALID,915.89,VALID,0,VALID,96.8555,VALID,0,VALID,19.8768,VALID,149,VALID,0,
2011-10-19, 00:40:05,VALID,915.925,VALID,0,VALID,96.8479,VALID,0,VALID,19.8768,VALID,149,VALID,0,
2011-10-19, 00:41:05,VALID,915.891,VALID,0,VALID,96.8936,VALID,0,VALID,19.9173,VALID,149,VALID,0,
2011-10-19, 00:42:05,VALID,915.872,VALID,0,VALID,96.8936,VALID,0,VALID,19.9158,VALID,149,VALID,0.0472656,
2011-10-19, 00:43:05,VALID,915.895,VALID,0,VALID,96.8784,VALID,0,VALID,19.8963,VALID,149,VALID,1.07383,
2011-10-19, 00:44:05,VALID,915.853,VALID,0,VALID,96.825,VALID,0,VALID,19.8378,VALID,149,VALID,0.811328,
2011-10-19, 00:45:05,VALID,915.818,VALID,0,VALID,96.8403,VALID,0,VALID,19.8168,VALID,149,VALID,0.495313,
2011-10-19, 00:46:05,VALID,915.791,VALID,0,VALID,96.8631,VALID,0,VALID,19.8783,VALID,149,VALID,0.278906,
2011-10-19, 00:47:05,VALID,915.77,VALID,0,VALID,96.8403,VALID,0,VALID,19.8378,VALID,149,VALID,0.378125,
2011-10-19, 00:48:05,VALID,915.76,VALID,0,VALID,96.886,VALID,0,VALID,19.8378,VALID,149,VALID,0.137891,
2011-10-19, 00:49:05,VALID,915.744,VALID,0,VALID,96.8707,VALID,0,VALID,19.8183,VALID,149,VALID,0.00820312,
2011-10-19, 00:50:05,VALID,915.695,VALID,0,VALID,96.9165,VALID,0,VALID,19.8588,VALID,149,VALID,0.351172,
2011-10-19, 00:51:05,VALID,915.698,VALID,0,VALID,96.9012,VALID,0,VALID,19.8768,VALID,149,VALID,0.41875,
2011-10-19, 00:52:05,VALID,915.647,VALID,0,VALID,96.9241,VALID,0,VALID,19.8963,VALID,149,VALID,0.273828,
2011-10-19, 00:53:05,VALID,915.657,VALID,0,VALID,96.9165,VALID,0,VALID,19.9353,VALID,149,VALID,0.357031,
2011-10-19, 00:54:05,VALID,915.655,VALID,0,VALID,96.9394,VALID,0,VALID,19.9743,VALID,149,VALID,0.165625,
2011-10-19, 00:55:05,VALID,915.595,VALID,0,VALID,96.9546,VALID,0,VALID,20.0148,VALID,149,VALID,0.253125,
2011-10-19, 00:56:05,VALID,915.58,VALID,0,VALID,96.9622,VALID,0,VALID,20.0133,VALID,149,VALID,0.05625,
2011-10-19, 00:57:05,VALID,915.54,VALID,0,VALID,96.947,VALID,0,VALID,20.0343,VALID,149,VALID,0,
2011-10-19, 00:58:05,VALID,915.531,VALID,0,VALID,96.947,VALID,0,VALID,20.0133,VALID,149,VALID,0.280078,
2011-10-19, 00:59:05,VALID,915.507,VALID,0,VALID,96.9241,VALID,0,VALID,20.0343,VALID,149,VALID,0.0585938,
2011-10-19, 01:00:05,VALID,915.507,VALID,0,VALID,96.947,VALID,0,VALID,20.0133,VALID,149,VALID,0.00585938,
2011-10-19, 01:01:05,VALID,915.484,VALID,0,VALID,96.9089,VALID,0,VALID,20.0133,VALID,149,VALID,0.463672,
2011-10-19, 01:02:05,VALID,915.489,VALID,0,VALID,96.9317,VALID,0,VALID,20.0133,VALID,154,VALID,0.7125,
2011-10-19, 01:03:05,VALID,915.464,VALID,0,VALID,96.9012,VALID,0,VALID,20.0148,VALID,155,VALID,0.31875,
2011-10-19, 01:04:05,VALID,915.446,VALID,0,VALID,96.8784,VALID,0,VALID,20.0343,VALID,155,VALID,0.234375,
2011-10-19, 01:05:05,VALID,915.43,VALID,0,VALID,96.8631,VALID,0,VALID,20.0133,VALID,155,VALID,0.25,
2011-10-19, 01:06:05,VALID,915.419,VALID,0,VALID,96.8555,VALID,0,VALID,20.0328,VALID,155,VALID,0.494922,
2011-10-19, 01:07:05,VALID,915.41,VALID,0,VALID,96.8479,VALID,0,VALID,20.0328,VALID,155,VALID,0.382031,
2011-10-19, 01:08:05,VALID,915.417,VALID,0,VALID,96.8479,VALID,0,VALID,20.0328,VALID,155,VALID,0.617578,
2011-10-19, 01:09:05,VALID,915.41,VALID,0,VALID,96.7335,VALID,0,VALID,19.9938,VALID,155,VALID,0.360156,
2011-10-19, 01:10:05,VALID,915.405,VALID,0,VALID,96.7488,VALID,0,VALID,19.9548,VALID,155,VALID,0.451953,
2011-10-19, 01:11:05,VALID,915.374,VALID,0,VALID,96.7793,VALID,0,VALID,19.9743,VALID,155,VALID,0.505859,
2011-10-19, 01:12:05,VALID,915.362,VALID,0,VALID,96.764,VALID,0,VALID,19.9548,VALID,155,VALID,0.4125,
2011-10-19, 01:13:05,VALID,915.337,VALID,0,VALID,96.7793,VALID,0,VALID,19.9953,VALID,155,VALID,0.102344,
2011-10-19, 01:14:05,VALID,915.328,VALID,0,VALID,96.7945,VALID,0,VALID,19.9953,VALID,155,VALID,0,
2011-10-19, 01:15:05,VALID,915.343,VALID,0,VALID,96.8631,VALID,0,VALID,20.0148,VALID,155,VALID,0.0910156,
2011-10-19, 01:16:05,VALID,915.348,VALID,0,VALID,96.8631,VALID,0,VALID,20.0538,VALID,155,VALID,0.419922,
2011-10-19, 01:17:05,VALID,915.334,VALID,0,VALID,96.8936,VALID,0,VALID,20.0733,VALID,155,VALID,0.760938,
2011-10-19, 01:18:05,VALID,915.344,VALID,0,VALID,96.8784,VALID,0,VALID,20.0718,VALID,155,VALID,0.839063,
2011-10-19, 01:19:05,VALID,915.351,VALID,0,VALID,96.8784,VALID,0,VALID,20.0538,VALID,155,VALID,0.796484,
2011-10-19, 01:20:05,VALID,915.355,VALID,0,VALID,96.8098,VALID,0,VALID,20.0133,VALID,155,VALID,0.769141,
2011-10-19, 01:21:05,VALID,915.32,VALID,0,VALID,96.7335,VALID,0,VALID,19.9758,VALID,155,VALID,0.451562,
2011-10-19, 01:22:05,VALID,915.318,VALID,0,VALID,96.7564,VALID,0,VALID,19.9563,VALID,155,VALID,0.61875,
2011-10-19, 01:23:05,VALID,915.341,VALID,0,VALID,96.8098,VALID,0,VALID,19.9353,VALID,155,VALID,0.367578,
2011-10-19, 01:24:05,VALID,915.342,VALID,0,VALID,96.8403,VALID,0,VALID,19.9353,VALID,155,VALID,0.326172,
2011-10-19, 01:25:05,VALID,915.382,VALID,0,VALID,96.8707,VALID,0,VALID,19.9743,VALID,155,VALID,0.830078,
2011-10-19, 01:26:05,VALID,915.42,VALID,0,VALID,96.8784,VALID,0,VALID,19.9938,VALID,155,VALID,0.758594,
2011-10-19, 01:27:05,VALID,915.379,VALID,0,VALID,96.886,VALID,0,VALID,19.9548,VALID,155,VALID,0.511719,
2011-10-19, 01:28:05,VALID,915.388,VALID,0,VALID,96.9089,VALID,0,VALID,19.9548,VALID,155,VALID,0.294531,
2011-10-19, 01:29:05,VALID,915.401,VALID,0,VALID,96.886,VALID,0,VALID,19.9548,VALID,155,VALID,0.464453,
2011-10-19, 01:30:05,VALID,915.382,VALID,0,VALID,96.886,VALID,0,VALID,19.9158,VALID,155,VALID,0.66875,
2011-10-19, 01:31:05,VALID,915.402,VALID,0,VALID,96.8936,VALID,0,VALID,19.9158,VALID,155,VALID,0.5375,
2011-10-19, 01:32:05,VALID,915.392,VALID,0,VALID,96.9165,VALID,0,VALID,19.9368,VALID,155,VALID,0.215234,
2011-10-19, 01:33:05,VALID,915.388,VALID,0,VALID,96.9241,VALID,0,VALID,19.8963,VALID,155,VALID,0.522656,
2011-10-19, 01:34:05,VALID,915.363,VALID,0,VALID,96.9317,VALID,0,VALID,19.8768,VALID,155,VALID,0.261719,
2011-10-19, 01:35:05,VALID,915.36,VALID,0,VALID,96.9546,VALID,0,VALID,19.9368,VALID,155,VALID,0.391016,
2011-10-19, 01:36:05,VALID,915.367,VALID,0,VALID,96.9851,VALID,0,VALID,19.9758,VALID,155,VALID,0.533203,
2011-10-19, 01:37:05,VALID,915.395,VALID,0,VALID,97.0385,VALID,0,VALID,20.0133,VALID,155,VALID,0.616016,
2011-10-19, 01:38:05,VALID,915.411,VALID,0,VALID,97.0461,VALID,0,VALID,20.0328,VALID,155,VALID,0.728125,
2011-10-19, 01:39:05,VALID,915.391,VALID,0,VALID,97.0385,VALID,0,VALID,20.0133,VALID,155,VALID,1.1457,
2011-10-19, 01:40:05,VALID,915.392,VALID,0,VALID,97.0156,VALID,0,VALID,19.9758,VALID,155,VALID,0.923828,
2011-10-19, 01:41:05,VALID,915.413,VALID,0,VALID,97.0308,VALID,0,VALID,19.9548,VALID,155,VALID,0.507422,
2011-10-19, 01:42:05,VALID,915.406,VALID,0,VALID,97.0385,VALID,0,VALID,19.9353,VALID,155,VALID,0.567187,
2011-10-19, 01:43:05,VALID,915.395,VALID,0,VALID,97.0308,VALID,0,VALID,19.9158,VALID,158,VALID,0.433203,
2011-10-19, 01:44:05,VALID,915.404,VALID,0,VALID,97.0385,VALID,0,VALID,19.9173,VALID,158,VALID,0.839453,
2011-10-19, 01:45:05,VALID,915.405,VALID,0,VALID,97.0461,VALID,0,VALID,19.9368,VALID,158,VALID,0.280469,
2011-10-19, 01:46:05,VALID,915.39,VALID,0,VALID,97.0842,VALID,0,VALID,19.9353,VALID,158,VALID,0.351172,
2011-10-19, 01:47:05,VALID,915.383,VALID,0,VALID,97.0842,VALID,0,VALID,19.9353,VALID,158,VALID,0.0957031,
2011-10-19, 01:48:05,VALID,915.385,VALID,0,VALID,97.0918,VALID,0.107441,VALID,19.9353,VALID,158,VALID,0.00507812,
2011-10-19, 01:49:05,VALID,915.377,VALID,0,VALID,97.1147,VALID,0.107441,VALID,19.9548,VALID,272,VALID,0.8625,
2011-10-19, 01:50:05,VALID,915.348,VALID,0.2,VALID,97.0994,VALID,0.107441,VALID,19.9158,VALID,305,VALID,0.653125,
2011-10-19, 01:51:05,VALID,915.35,VALID,0,VALID,97.1147,VALID,0.107441,VALID,19.8768,VALID,306,VALID,1.05,
2011-10-19, 01:52:05,VALID,915.369,VALID,0,VALID,97.1223,VALID,0.107441,VALID,19.9353,VALID,306,VALID,0.819531,
2011-10-19, 01:53:05,VALID,915.376,VALID,0,VALID,97.1223,VALID,0,VALID,19.9158,VALID,306,VALID,1.04219,
2011-10-19, 01:54:05,VALID,915.371,VALID,0,VALID,97.1223,VALID,0,VALID,19.8768,VALID,3,VALID,1.25352,
2011-10-19, 01:55:05,VALID,915.353,VALID,0,VALID,97.1299,VALID,0,VALID,19.8963,VALID,3,VALID,1.08906,
2011-10-19, 01:56:05,VALID,915.364,VALID,0,VALID,97.1376,VALID,0.107441,VALID,19.8963,VALID,3,VALID,0.819922,
2011-10-19, 01:57:05,VALID,915.371,VALID,0,VALID,97.1452,VALID,0,VALID,19.8963,VALID,3,VALID,0.430859,
2011-10-19, 01:58:05,VALID,915.352,VALID,0,VALID,97.1528,VALID,0.107441,VALID,19.8963,VALID,3,VALID,1.02539,
2011-10-19, 01:59:05,VALID,915.334,VALID,0.2,VALID,97.1681,VALID,0.107441,VALID,19.8558,VALID,3,VALID,0.795703,
2011-10-19, 02:00:05,VALID,915.32,VALID,0,VALID,97.1528,VALID,0,VALID,19.8768,VALID,2,VALID,0.665625,
2011-10-19, 02:01:05,VALID,915.343,VALID,0.2,VALID,97.1757,VALID,0,VALID,19.8963,VALID,2,VALID,0.739844,
2011-10-19, 02:02:05,VALID,915.325,VALID,0,VALID,97.2062,VALID,0.107441,VALID,19.9158,VALID,2,VALID,0.520312,
2011-10-19, 02:03:05,VALID,915.285,VALID,0,VALID,97.1909,VALID,0.107441,VALID,19.9158,VALID,2,VALID,0.405859,
2011-10-19, 02:04:05,VALID,915.28,VALID,0.2,VALID,97.229,VALID,0,VALID,19.9353,VALID,2,VALID,0.223828,
2011-10-19, 02:05:05,VALID,915.277,VALID,0,VALID,97.229,VALID,0.107441,VALID,19.9548,VALID,2,VALID,0,
2011-10-19, 02:06:05,VALID,915.248,VALID,0.2,VALID,97.229,VALID,0,VALID,19.9548,VALID,2,VALID,0.13125,
2011-10-19, 02:07:05,VALID,915.269,VALID,0,VALID,97.2367,VALID,0.107441,VALID,19.9353,VALID,2,VALID,0,
2011-10-19, 02:08:05,VALID,915.239,VALID,0.2,VALID,97.229,VALID,0,VALID,19.9353,VALID,2,VALID,0.0160156,
2011-10-19, 02:09:05,VALID,915.238,VALID,0,VALID,97.2138,VALID,0,VALID,19.9563,VALID,2,VALID,0.371875,
2011-10-19, 02:10:05,VALID,915.208,VALID,0,VALID,97.229,VALID,0.107441,VALID,19.9353,VALID,2,VALID,0.348047,
2011-10-19, 02:11:05,VALID,915.216,VALID,0.2,VALID,97.229,VALID,0,VALID,19.9143,VALID,2,VALID,0.440625,
2011-10-19, 02:12:05,VALID,915.233,VALID,0,VALID,97.2367,VALID,0.107441,VALID,19.9158,VALID,2,VALID,0,
2011-10-19, 02:13:05,VALID,915.241,VALID,0,VALID,97.2367,VALID,0,VALID,19.9158,VALID,2,VALID,0,
2011-10-19, 02:14:05,VALID,915.258,VALID,0,VALID,97.229,VALID,0,VALID,19.8963,VALID,2,VALID,0,
2011-10-19, 02:15:05,VALID,915.254,VALID,0,VALID,97.2367,VALID,0,VALID,19.8963,VALID,2,VALID,0,
2011-10-19, 02:16:05,VALID,915.25,VALID,0,VALID,97.2519,VALID,0,VALID,19.9158,VALID,2,VALID,0,
2011-10-19, 02:17:05,VALID,915.193,VALID,0,VALID,97.2443,VALID,0.107441,VALID,19.9353,VALID,351,VALID,0.483203,
2011-10-19, 02:18:05,VALID,915.206,VALID,0,VALID,97.2519,VALID,0.107441,VALID,19.8948,VALID,314,VALID,0.695313,
2011-10-19, 02:19:05,VALID,915.198,VALID,0,VALID,97.2595,VALID,0.107441,VALID,19.9158,VALID,314,VALID,0.314453,
2011-10-19, 02:20:05,VALID,915.219,VALID,0,VALID,97.2595,VALID,0,VALID,19.9338,VALID,314,VALID,0,
2011-10-19, 02:21:05,VALID,915.202,VALID,0,VALID,97.2748,VALID,0.107441,VALID,19.9743,VALID,314,VALID,0,
2011-10-19, 02:22:05,VALID,915.185,VALID,0,VALID,97.29,VALID,0.107441,VALID,19.9743,VALID,314,VALID,0.0578125,
2011-10-19, 02:23:05,VALID,915.178,VALID,0,VALID,97.2748,VALID,0.107441,VALID,19.9743,VALID,314,VALID,0.340234,
2011-10-19, 02:24:05,VALID,915.165,VALID,0,VALID,97.2824,VALID,0,VALID,19.9548,VALID,314,VALID,0.384375,
2011-10-19, 02:25:05,VALID,915.144,VALID,0,VALID,97.2977,VALID,0.107441,VALID,19.9548,VALID,314,VALID,0.486328,
2011-10-19, 02:26:05,VALID,915.181,VALID,0,VALID,97.2824,VALID,0,VALID,19.8963,VALID,314,VALID,0.530859,
2011-10-19, 02:27:05,VALID,915.143,VALID,0,VALID,97.2977,VALID,0,VALID,19.8963,VALID,314,VALID,0.357812,
2011-10-19, 02:28:05,VALID,915.148,VALID,0,VALID,97.29,VALID,0.107441,VALID,19.9158,VALID,314,VALID,0.400781,
2011-10-19, 02:29:05,VALID,915.109,VALID,0.2,VALID,97.3053,VALID,0,VALID,19.9353,VALID,314,VALID,0.335547,
2011-10-19, 02:30:05,VALID,915.105,VALID,0,VALID,97.29,VALID,0.107441,VALID,19.9353,VALID,314,VALID,0.236719,
2011-10-19, 02:31:05,VALID,915.104,VALID,0,VALID,97.3129,VALID,0,VALID,19.9548,VALID,314,VALID,0.244922,
2011-10-19, 02:32:05,VALID,915.059,VALID,0,VALID,97.3053,VALID,0.107441,VALID,19.9353,VALID,314,VALID,0.578125,
2011-10-19, 02:33:05,VALID,915.042,VALID,0,VALID,97.3129,VALID,0.107441,VALID,19.9158,VALID,314,VALID,0.538281,
2011-10-19, 02:34:05,VALID,915.022,VALID,0,VALID,97.3205,VALID,0,VALID,19.9353,VALID,314,VALID,0.435937,
2011-10-19, 02:35:05,VALID,914.996,VALID,0,VALID,97.3129,VALID,0.107441,VALID,19.9548,VALID,314,VALID,0.519922,
2011-10-19, 02:36:05,VALID,914.992,VALID,0,VALID,97.3205,VALID,0,VALID,19.9548,VALID,314,VALID,0.550391,
2011-10-19, 02:37:05,VALID,914.988,VALID,0,VALID,97.3281,VALID,0,VALID,19.9548,VALID,254,VALID,0.921094,
2011-10-19, 02:38:05,VALID,914.956,VALID,0,VALID,97.3205,VALID,0.107441,VALID,19.9548,VALID,209,VALID,0.462109,
2011-10-19, 02:39:05,VALID,914.927,VALID,0,VALID,97.3205,VALID,0,VALID,19.9548,VALID,243,VALID,0.871484,
2011-10-19, 02:40:05,VALID,914.967,VALID,0,VALID,97.3434,VALID,0.107441,VALID,19.9158,VALID,260,VALID,0.733594,
2011-10-19, 02:41:05,VALID,914.98,VALID,0,VALID,97.3586,VALID,0,VALID,19.9158,VALID,240,VALID,1.04375,
2011-10-19, 02:42:05,VALID,914.945,VALID,0,VALID,97.351,VALID,0,VALID,19.9158,VALID,224,VALID,0.754297,
2011-10-19, 02:43:05,VALID,914.947,VALID,0,VALID,97.351,VALID,0,VALID,19.9158,VALID,224,VALID,0.734375,
2011-10-19, 02:44:05,VALID,914.955,VALID,0,VALID,97.3358,VALID,0,VALID,19.8768,VALID,224,VALID,0.433203,
2011-10-19, 02:45:05,VALID,914.96,VALID,0,VALID,97.3586,VALID,0,VALID,19.8963,VALID,224,VALID,0.266797,
2011-10-19, 02:46:05,VALID,914.912,VALID,0,VALID,97.3663,VALID,0.107441,VALID,19.8963,VALID,224,VALID,0.615625,
2011-10-19, 02:47:05,VALID,914.911,VALID,0,VALID,97.3586,VALID,0,VALID,19.8573,VALID,224,VALID,0.621094,
2011-10-19, 02:48:05,VALID,914.893,VALID,0,VALID,97.351,VALID,0.107441,VALID,19.8573,VALID,224,VALID,0.675781,
2011-10-19, 02:49:05,VALID,914.882,VALID,0,VALID,97.3586,VALID,0,VALID,19.8573,VALID,224,VALID,0.373437,
2011-10-19, 02:50:05,VALID,914.879,VALID,0,VALID,97.3586,VALID,0,VALID,19.8783,VALID,224,VALID,0.453125,
2011-10-19, 02:51:05,VALID,914.872,VALID,0,VALID,97.3891,VALID,0,VALID,19.8768,VALID,224,VALID,0.171875,
2011-10-19, 02:52:05,VALID,914.829,VALID,0,VALID,97.3739,VALID,0,VALID,19.8978,VALID,224,VALID,0.308203,
2011-10-19, 02:53:05,VALID,914.834,VALID,0,VALID,97.3663,VALID,0,VALID,19.8963,VALID,224,VALID,0.466406,
2011-10-19, 02:54:05,VALID,914.813,VALID,0,VALID,97.3815,VALID,0,VALID,19.9353,VALID,224,VALID,0.521094,
2011-10-19, 02:55:05,VALID,914.813,VALID,0,VALID,97.4044,VALID,0,VALID,19.9158,VALID,224,VALID,0.675,
2011-10-19, 02:56:05,VALID,914.801,VALID,0,VALID,97.3739,VALID,0,VALID,19.8963,VALID,351,VALID,0.556641,
2011-10-19, 02:57:05,VALID,914.771,VALID,0,VALID,97.3815,VALID,0,VALID,19.8978,VALID,351,VALID,0.373047,
2011-10-19, 02:58:05,VALID,914.785,VALID,0,VALID,97.3891,VALID,0,VALID,19.8378,VALID,350,VALID,0.375781,
2011-10-19, 02:59:05,VALID,914.755,VALID,0,VALID,97.3968,VALID,0,VALID,19.8378,VALID,350,VALID,0.259766,
2011-10-19, 03:00:05,VALID,914.766,VALID,0,VALID,97.3968,VALID,0,VALID,19.8588,VALID,351,VALID,0,
2011-10-19, 03:01:05,VALID,914.709,VALID,0,VALID,97.412,VALID,0,VALID,19.8783,VALID,350,VALID,0,
2011-10-19, 03:02:05,VALID,914.687,VALID,0,VALID,97.3891,VALID,0,VALID,19.8963,VALID,350,VALID,0.000390625,
2011-10-19, 03:03:05,VALID,914.65,VALID,0,VALID,97.412,VALID,0,VALID,19.8768,VALID,350,VALID,0.142188,
2011-10-19, 03:04:05,VALID,914.651,VALID,0,VALID,97.4044,VALID,0,VALID,19.8963,VALID,350,VALID,0.367188,
2011-10-19, 03:05:04,VALID,914.614,VALID,0,VALID,97.4044,VALID,0,VALID,19.9173,VALID,350,VALID,0.528125,
2011-10-19, 03:06:04,VALID,914.622,VALID,0,VALID,97.4196,VALID,0.107441,VALID,19.8783,VALID,350,VALID,0.348437,
2011-10-19, 03:07:04,VALID,914.596,VALID,0,VALID,97.4196,VALID,0,VALID,19.8573,VALID,350,VALID,0.285937,
2011-10-19, 03:08:04,VALID,914.583,VALID,0,VALID,97.4196,VALID,0,VALID,19.8573,VALID,350,VALID,0.572656,
2011-10-19, 03:09:04,VALID,914.525,VALID,0,VALID,97.4273,VALID,0,VALID,19.8963,VALID,350,VALID,0.653125,
2011-10-19, 03:10:04,VALID,914.529,VALID,0,VALID,97.4349,VALID,0,VALID,19.9353,VALID,350,VALID,0.335547,
2011-10-19, 03:11:04,VALID,914.5,VALID,0,VALID,97.4196,VALID,0,VALID,19.9353,VALID,350,VALID,0.498047,
2011-10-19, 03:12:04,VALID,914.484,VALID,0,VALID,97.412,VALID,0,VALID,19.8768,VALID,350,VALID,0.614062,
2011-10-19, 03:13:04,VALID,914.488,VALID,0,VALID,97.4196,VALID,0,VALID,19.8978,VALID,350,VALID,0.379297,
2011-10-19, 03:14:04,VALID,914.457,VALID,0,VALID,97.4196,VALID,0,VALID,19.8768,VALID,350,VALID,0.422266,
2011-10-19, 03:15:04,VALID,914.458,VALID,0,VALID,97.4425,VALID,0,VALID,19.8768,VALID,350,VALID,0.657422,
2011-10-19, 03:16:04,VALID,914.486,VALID,0,VALID,97.4196,VALID,0,VALID,19.8378,VALID,350,VALID,0.773438,
2011-10-19, 03:17:04,VALID,914.481,VALID,0,VALID,97.4273,VALID,0,VALID,19.8378,VALID,350,VALID,0.877734,
2011-10-19, 03:18:04,VALID,914.473,VALID,0,VALID,97.4273,VALID,0,VALID,19.8573,VALID,350,VALID,0.605078,
2011-10-19, 03:19:04,VALID,914.471,VALID,0,VALID,97.4349,VALID,0.107441,VALID,19.8768,VALID,350,VALID,0.452344,
2011-10-19, 03:20:04,VALID,914.481,VALID,0,VALID,97.4501,VALID,0,VALID,19.8183,VALID,350,VALID,0.667188,
2011-10-19, 03:21:04,VALID,914.468,VALID,0,VALID,97.4196,VALID,0,VALID,19.7793,VALID,350,VALID,0.683984,
2011-10-19, 03:22:04,VALID,914.481,VALID,0,VALID,97.4425,VALID,0,VALID,19.7598,VALID,350,VALID,0.829687,
2011-10-19, 03:23:04,VALID,914.503,VALID,0,VALID,97.4273,VALID,0,VALID,19.7598,VALID,350,VALID,0.876172,
2011-10-19, 03:24:04,VALID,914.464,VALID,0,VALID,97.4196,VALID,0,VALID,19.7208,VALID,350,VALID,0.903516,
2011-10-19, 03:25:04,VALID,914.471,VALID,0,VALID,97.4425,VALID,0,VALID,19.7403,VALID,350,VALID,0.725,
2011-10-19, 03:26:04,VALID,914.49,VALID,0,VALID,97.4501,VALID,0,VALID,19.7403,VALID,350,VALID,0.924609,
2011-10-19, 03:27:04,VALID,914.484,VALID,0,VALID,97.4501,VALID,0,VALID,19.7403,VALID,351,VALID,1.08086,
2011-10-19, 03:28:04,VALID,914.488,VALID,0,VALID,97.473,VALID,0,VALID,19.7208,VALID,351,VALID,0.542188,
2011-10-19, 03:29:04,VALID,914.494,VALID,0,VALID,97.473,VALID,0,VALID,19.7208,VALID,351,VALID,0.532031,
2011-10-19, 03:30:04,VALID,914.461,VALID,0,VALID,97.473,VALID,0.107441,VALID,19.7208,VALID,351,VALID,0.610937,
2011-10-19, 03:31:04,VALID,914.457,VALID,0,VALID,97.473,VALID,0,VALID,19.7208,VALID,351,VALID,0.827734,
2011-10-19, 03:32:04,VALID,914.456,VALID,0,VALID,97.4654,VALID,0,VALID,19.7208,VALID,351,VALID,0.704297,
2011-10-19, 03:33:04,VALID,914.448,VALID,0,VALID,97.4654,VALID,0,VALID,19.7208,VALID,351,VALID,0.605859,
2011-10-19, 03:34:04,VALID,914.43,VALID,0,VALID,97.4882,VALID,0,VALID,19.7208,VALID,351,VALID,0.308984,
2011-10-19, 03:35:04,VALID,914.444,VALID,0,VALID,97.473,VALID,0,VALID,19.7418,VALID,351,VALID,0.319141,
2011-10-19, 03:36:04,VALID,914.42,VALID,0,VALID,97.4882,VALID,0,VALID,19.7208,VALID,351,VALID,0.199609,
2011-10-19, 03:37:04,VALID,914.431,VALID,0,VALID,97.4882,VALID,0,VALID,19.7403,VALID,351,VALID,0.167187,
2011-10-19, 03:38:04,VALID,914.439,VALID,0,VALID,97.5035,VALID,0,VALID,19.7988,VALID,351,VALID,0.145703,
2011-10-19, 03:39:04,VALID,914.441,VALID,0,VALID,97.5187,VALID,0.107441,VALID,19.8003,VALID,351,VALID,0,
2011-10-19, 03:40:04,VALID,914.451,VALID,0,VALID,97.4806,VALID,0.107441,VALID,19.7598,VALID,351,VALID,0,
2011-10-19, 03:41:04,VALID,914.449,VALID,0,VALID,97.5187,VALID,0,VALID,19.7598,VALID,351,VALID,0.0804688,
2011-10-19, 03:42:04,VALID,914.466,VALID,0,VALID,97.4959,VALID,0,VALID,19.7598,VALID,351,VALID,0,
2011-10-19, 03:43:04,VALID,914.435,VALID,0,VALID,97.5111,VALID,0,VALID,19.7598,VALID,351,VALID,0.374609,
2011-10-19, 03:44:04,VALID,914.446,VALID,0,VALID,97.5111,VALID,0,VALID,19.7793,VALID,351,VALID,0.212109,